Content
SEND FEEDBACK

Daily
Averages
Monthly
Summary
United States of America

EMPORIA, KANSAS


Home > North America > United States > Kansas
Elevation: 1204 feet     Latitude: 38 19N     Longitude: 096 11W

WEATHER
 
SELECT A DAY
Number of Records: 200,240;   Date Range: 1/1/95 - 10/21/14
 
SHARE

PRINT THIS DATA

[ ← Previous Day ]
WEATHER ALMANAC - FEBRUARY 8, 2013
[ Next Day → ]
[ °C ]   °F
Weather ElementAverageHighLow
Temperature32.1 °F39.9 °F (3:53 pm)28 °F (6:53 am)
Dewpoint27.5 °F30.9 °F (4:53 pm)24.8 °F (7:29 am)
Humidity83.5 %93 % (8:11 am)67 % (2:53 pm)
Barometer30.29 in30.39 in (11:53 am)30.19 in (11:53 pm)
Wind Speed7.5 mph11.5 mph (9:53 pm)
Weather ElementAverage
Visibility5.3 mi
Wind DirectionE (90 °)

Weather ElementTotal
Precipitation---
Heating Degree Days31.1 (Base 65)
Averaged from 28 records on February 8, 2013
WEATHER CONDITIONS BREAKOUT
WIND DIRECTION BREAKOUT
WEATHER BY HOUR - FEBRUARY 8, 2013
[ °C ]   °F
Local TimeTemperatureDewpointHumidityBarometerVisibilityWind DirectionWind SpeedGust SpeedPrecipitationEventsConditions
1:53 AM30.0 °F27.0 °F88 %30.26 in5.0 miNorth (360°)9.2 mphOvercast
2:53 AM28.9 °F26.1 °F89 %30.27 in4.0 miNNE (20°)8.1 mphOvercast
3:53 AM28.9 °F26.1 °F89 %30.28 in3.0 miNorth (10°)8.1 mphOvercast
4:44 AM30.2 °F26.6 °F86 %30.27 in2.5 miNNE (20°)6.9 mphOvercast
4:53 AM28.9 °F26.1 °F89 %30.31 in2.5 miNNE (30°)9.2 mphOvercast
5:53 AM28.9 °F26.1 °F89 %30.31 in2.5 miNNE (30°)8.1 mphOvercast
6:53 AM28.0 °F25.0 °F88 %30.33 in2.5 miNNE (30°)6.9 mphOvercast
7:29 AM28.4 °F24.8 °F86 %30.30 in3.0 miNE (50°)6.9 mphOvercast
7:42 AM28.4 °F24.8 °F86 %30.30 in2.0 miNE (50°)8.1 mphOvercast
7:53 AM28.0 °F25.0 °F88 %30.35 in2.5 miNNE (20°)6.9 mphOvercast
8:11 AM28.4 °F26.6 °F93 %30.31 in3.0 miENE (60°)8.1 mphOvercast
8:53 AM28.0 °F26.1 °F92 %30.36 in4.0 miENE (60°)8.1 mphOvercast
9:53 AM28.9 °F26.1 °F89 %30.36 in4.0 miEast (90°)9.2 mphOvercast
10:53 AM30.9 °F26.1 °F82 %30.37 in3.0 miNE (50°)4.6 mphHaze
11:53 AM32.0 °F26.1 °F79 %30.39 in5.0 miSSE (150°)3.5 mphHaze
12:53 PM35.1 °F28.0 °F76 %30.35 in5.0 miNE (40°)4.6 mphHaze
1:19 PM35.6 °F28.4 °F75 %30.31 in7.0 miEast (80°)3.5 mphScattered Clouds
1:53 PM37.9 °F28.9 °F70 %30.32 in9.0 miEast (90°)3.5 mphClear
2:53 PM39.0 °F28.9 °F67 %30.28 in10.0 miESE (110°)5.8 mphClear
3:53 PM39.9 °F30.0 °F68 %30.27 in9.0 miSE (140°)8.1 mphClear
4:53 PM39.9 °F30.9 °F70 %30.26 in10.0 miESE (110°)9.2 mphClear
5:53 PM37.0 °F30.0 °F76 %30.25 in10.0 miESE (120°)9.2 mphClear
6:53 PM34.0 °F30.0 °F85 %30.26 in9.0 miSSE (150°)6.9 mphClear
7:53 PM32.0 °F28.9 °F88 %30.24 in7.0 miSE (130°)6.9 mphClear
8:53 PM33.1 °F30.0 °F89 %30.23 in5.0 miSE (130°)6.9 mphClear
9:53 PM33.1 °F28.9 °F85 %30.23 in6.0 miSE (130°)11.5 mphClear
10:53 PM32.0 °F28.9 °F88 %30.21 in6.0 miSE (130°)11.5 mphClear
11:53 PM32.0 °F28.9 °F88 %30.19 in7.0 miSE (130°)11.5 mphClear
Hourly data recorded from KEMP, located miles away from Emporia, Kansas







STORIES FROM OUR PARTNERS